Regional Weather Roundup
Issued by NWS Little Rock, AR

Home | Current Version | Previous Version | Graphics & Text | Print | Product List | Glossary On
Versions: 1 2 3 4 5 6 7 8 9 10 11 12 13 14 15 16 17 18 19 20 21 22 23 24 25 26 27 28 29 30 31 32 33 34 35 36 37 38 39 40 41 42 43 44 45 46 47 48 49 50
000
ASUS44 KLZK 060305
RWRLZK

WEATHER ROUNDUP FOR ARKANSAS
NATIONAL WEATHER SERVICE LITTLE ROCK AR
900 PM CST MON DEC 05 2016

NOTE: "FAIR" INDICATES FEW OR NO CLOUDS BELOW 12,000 FEET WITH NO
SIGNIFICANT WEATHER AND/OR OBSTRUCTIONS TO VISIBILITY.

ARZ001-003-010-029-060400-
NORTHWEST ARKANSAS

CITY           SKY/WX    TMP DP  RH WIND       PRES   REMARKS
FAYETTEVILLE   CLOUDY    46  40  79 W3        29.73R
FORT SMITH     CLOUDY    45  42  89 E8        29.74F FOG
HARRISON       LGT RAIN  40  39  97 SE7       29.74F
BENTONVILLE    CLOUDY    45  36  70 CALM      29.74R
ROGERS         CLOUDY    45  39  79 E5        29.74R
SILOAM SPGS    CLOUDY    43  37  81 CALM      29.73S
HIGHFILL       CLOUDY    45  38  76 SW3       29.73R
SPRINGDALE     CLOUDY    46  39  76 S3        29.75R
$$

ARZ004-005-016-060400-
NORTH CENTRAL ARKANSAS

CITY           SKY/WX    TMP DP  RH WIND       PRES   REMARKS
BATESVILLE     CLOUDY    43  39  87 NE6       29.78F
FLIPPIN        CLOUDY    41  36  81 E3        29.75S
MTN HOME       CLOUDY    40  38  93 SE5       29.76S
$$

ARZ040-041-060400-
WEST CENTRAL ARKANSAS

CITY           SKY/WX    TMP DP  RH WIND       PRES   REMARKS
MENA           CLOUDY    46  45  93 CALM      29.72F
MOUNT IDA      CLOUDY    45  43  93 CALM      29.69F FOG
$$

ARZ009-017-025-026-028-060400-
NORTHEAST ARKANSAS

CITY           SKY/WX    TMP DP  RH WIND       PRES   REMARKS
CORNING        CLOUDY    41  39  93 NE8       29.81F
JONESBORO      CLOUDY    43  40  89 NE9       29.77F
NEWPORT        LGT RAIN  42  42 100 NE12      29.77F FOG
WALNUT RIDGE   CLOUDY    43  37  81 NE9       29.78F
BLYTHEVILLE    CLOUDY    45  40  82 NE8       29.77F
$$

ARZ022-023-033-042-044-060400-
CENTRAL ARKANSAS

CITY           SKY/WX    TMP DP  RH WIND       PRES   REMARKS
LITTLE ROCK    DRZL/FOG  43  43 100 NE5       29.78R VSB 1
N LITTLE ROCK    N/A     42  42  97 E5        29.79R
JACKSONVILLE   DRIZZLE   43  43  99 NE3       29.76R FOG
SEARCY         CLOUDY    43  43 100 NE7       29.79R FOG
HOT SPRINGS    CLOUDY    45  44  97 NE7       29.73F
RUSSELLVILLE   CLOUDY    44  42  93 CALM      29.75S
CLINTON        CLOUDY    43  41  93 CALM      29.77R FOG
$$

ARZ036-060400-
EAST ARKANSAS

CITY           SKY/WX    TMP DP  RH WIND       PRES   REMARKS
WEST MEMPHIS   CLOUDY    46  44  93 NE7       29.73F
$$

ARZ050-053-066-070-073-060400-
SOUTHWEST ARKANSAS

CITY           SKY/WX    TMP DP  RH WIND       PRES   REMARKS
ARKADELPHIA    LGT RAIN  45  44  97 E5        29.76F
CAMDEN         CLOUDY    45  43  93 NE5       29.73F
TEXARKANA      LGT RAIN  46  46 100 VRB3      29.72F
EL DORADO      LGT RAIN  47  46  97 NE6       29.72F
DE QUEEN       LGT RAIN  47  47 100 NE5       29.70F FOG
$$

ARZ056-057-069-060400-
SOUTHEAST ARKANSAS

CITY           SKY/WX    TMP DP  RH WIND       PRES   REMARKS
PINE BLUFF     LGT RAIN  45  44  97 N6        29.77R FOG
STUTTGART      CLOUDY    45  39  81 N8        29.76R
MONTICELLO     LGT RAIN  47  46  97 NW6       29.76R FOG

$$





USA.gov is the U.S. government's official web portal to all federal, state and local government web resources and services.